Wetbulb
52.22 52.79 55.09 60.34 63.91 64.34 64.30 65.57 65.33 65.46 64.88 63.84 62.64 61.79 61.03 61.46 60.28 59.95 59.67 59.19 59.93 59.94 58.88 58.20 58.18 58.49 57.97 57.43 57.77 56.68 55.82 54.88 55.60 54.46 54.10 54.69 55.62 55.23 55.00 55.42 55.46 55.98 55.91
44.28 46.59 48.06 51.08 56.09 61.79 63.68 64.95 65.10 65.53 65.01 64.41 63.43 62.89 62.74 61.52 60.77 59.66 60.07 60.22 59.65 59.92 59.10 58.41 58.01 57.70 57.72 57.16 57.31 57.24 55.90 55.22 55.89 53.65 53.10 51.03 53.10 54.69 55.53 55.33 55.81 54.93 55.63
36.59 40.22 42.45 44.64 48.62 48.90 56.40 64.04 65.30 65.33 64.64 64.91 63.69 63.46 63.60 62.61 61.29 58.52 58.75 59.64 60.02 59.83 59.65 58.65 58.37 57.17 57.60 57.29 56.93 57.23 56.62 54.80 55.35 56.01 54.51 50.73 49.89 51.82 54.25 54.54 54.99 54.71 54.47
31.82 34.12 37.15 39.80 41.92 45.34 48.60 56.25 64.86 64.65 64.42 64.60 63.44 62.69 61.81 60.41 61.31 59.28 58.95 59.30 60.16 59.55 60.27 59.77 59.00 57.53 57.00 57.13 57.34 58.03 57.39 56.22 54.83 54.95 55.61 55.47 53.90 50.97 49.82 53.30 54.04 54.42 54.74
28.04 29.04 31.23 34.68 37.35 40.66 43.89 48.42 58.16 64.01 63.90 63.44 63.66 62.82 62.07 62.31 62.40 60.32 58.68 59.03 59.57 59.45 59.97 60.35 59.33 58.33 57.68 58.28 58.60 57.52 57.32 57.03 56.04 54.99 54.39 54.12 54.05 53.54 51.39 49.45 51.61 53.68 54.23
25.39 26.85 29.01 30.70 33.35 35.89 39.00 42.65 47.60 61.58 63.28 63.43 63.38 62.59 62.09 61.90 61.80 60.65 58.75 58.62 59.45 59.12 59.00 59.55 59.77 58.95 58.35 58.81 59.22 58.76 57.73 57.55 57.01 56.32 55.24 54.33 53.18 52.86 52.17 50.87 50.65 51.08 53.45
23.09 23.90 24.57 26.18 27.98 30.34 34.65 38.32 41.16 44.79 51.16 62.91 62.89 62.99 62.03 62.00 61.79 61.66 59.86 58.72 58.81 58.60 58.34 58.72 58.65 58.83 59.20 59.37 59.34 58.71 57.94 58.00 57.09 56.39 55.94 56.25 56.23 56.35 54.82 53.33 51.47 51.07 52.46
22.05 22.33 23.25 24.77 25.53 27.48 29.97 32.43 34.80 38.29 42.50 47.94 58.20 62.61 62.30 61.95 61.99 62.66 62.31 60.56 59.56 59.25 59.01 58.88 58.89 58.64 59.00 59.90 59.71 58.36 57.90 57.58 57.47 56.79 56.83 56.53 56.91 57.48 56.76 54.60 52.83 50.28 50.72
20.75 21.50 22.63 23.48 24.51 25.30 27.06 27.80 32.61 34.85 38.78 41.53 46.35 53.55 62.15 61.75 61.45 62.16 62.77 62.44 61.58 60.39 59.38 59.17 58.68 59.00 58.90 58.52 58.66 58.21 57.63 57.53 57.71 56.90 56.69 56.48 56.60 57.10 57.72 56.89 55.54 53.00 48.72
20.11 21.06 22.01 22.62 23.91 24.99 26.11 27.43 29.37 31.72 35.55 37.17 40.60 44.71 55.05 61.88 61.98 62.02 61.65 62.15 62.54 62.01 60.23 60.05 59.88 59.64 59.31 58.96 58.43 58.19 58.49 58.20 58.23 58.15 56.96 56.31 56.34 56.45 56.72 56.59 56.26 55.41 52.62
19.90 20.64 21.70 22.80 23.30 24.79 25.01 25.92 27.00 30.30 31.14 33.58 36.59 40.37 44.48 54.96 61.77 61.38 61.39 61.47 62.03 62.31 61.76 61.42 61.30 61.16 60.68 59.40 58.87 58.54 58.45 57.91 57.99 58.38 57.75 57.06 56.79 56.19 56.19 56.08 55.74 54.87 53.96
20.33 20.83 20.90 21.90 22.28 22.98 23.79 24.39 26.03 26.65 28.99 30.41 33.61 35.80 39.14 43.04 51.80 53.88 56.70 61.55 61.43 61.83 61.81 61.87 61.91 61.80 61.42 60.82 60.13 60.01 59.70 58.87 58.43 58.67 58.42 57.93 57.98 56.25 55.98 55.68 55.07 55.04 54.38
20.20 20.53 20.64 20.39 21.14 22.09 23.30 23.88 25.28 26.09 27.70 28.80 29.50 32.22 34.42 36.66 39.37 46.34 51.47 54.08 56.07 56.71 57.46 59.45 59.35 59.86 61.00 61.06 60.66 60.38 60.34 59.62 59.01 57.87 57.90 57.82 58.20 55.82 55.53 55.33 55.16 54.81 55.71
19.76 19.86 19.76 20.32 20.79 21.65 22.61 23.48 24.53 26.08 26.87 27.73 27.75 28.26 30.59 33.27 36.21 39.83 45.64 49.62 51.52 53.53 53.57 54.20 54.96 55.85 56.56 57.43 58.09 58.78 58.46 58.71 58.40 58.29 58.17 57.44 57.22 56.64 56.07 56.02 55.52 55.18 54.28
17.97 18.91 19.11 19.75 20.52 20.83 21.81 23.36 24.12 25.19 26.17 26.03 26.57 27.18 29.04 31.38 34.59 36.48 40.69 45.12 46.72 48.90 51.57 51.57 52.13 53.16 54.24 55.12 55.50 56.37 56.46 56.75 56.81 56.80 56.64 56.72 54.68 52.61 55.20 56.75 55.39 54.89 53.64
17.04 18.21 18.93 19.20 20.31 20.18 21.11 22.87 23.60 23.84 25.25 24.83 25.26 26.74 27.96 29.63 31.41 34.21 36.22 39.14 43.21 45.09 47.64 49.63 50.57 51.61 50.69 48.34 49.34 53.39 55.94 56.19 55.67 53.78 53.97 54.61 51.22 51.08 50.61 51.76 52.40 54.69 53.52
16.37 16.87 17.75 18.55 19.09 19.53 20.99 22.18 23.06 23.44 23.25 23.83 24.78 25.65 26.58 28.09 29.71 31.19 33.75 34.55 36.99 41.33 43.13 44.88 46.43 47.55 47.94 47.79 48.34 48.88 54.21 54.62 54.61 54.26 52.95 53.16 54.54 52.26 53.81 50.83 49.83 50.36 50.90
16.04 16.45 17.25 18.17 18.24 18.84 19.74 22.59 23.16 22.25 21.80 22.18 23.42 24.83 25.40 26.47 28.37 29.29 30.40 31.91 33.81 36.85 39.01 41.52 44.06 45.73 46.06 46.56 46.59 47.07 51.16 53.41 53.89 54.04 52.70 51.96 52.11 52.82 54.73 54.36 52.17 51.96 52.09
16.76 17.23 18.32 18.60 18.56 18.17 19.08 20.67 20.35 20.78 20.79 20.70 22.25 23.80 24.96 25.38 26.46 26.72 28.74 30.37 31.48 33.67 36.63 39.17 41.42 43.62 45.11 44.83 45.31 46.33 48.70 50.56 51.48 53.87 54.57 54.23 52.76 51.14 50.12 52.83 52.00 51.68 51.81
17.37 17.39 18.16 18.99 17.80 17.99 18.47 18.79 18.07 18.48 18.55 20.21 22.00 23.73 24.73 25.94 24.99 26.12 27.54 29.44 31.42 32.56 34.21 37.74 41.05 44.14 42.62 44.12 44.31 45.30 46.54 48.01 49.56 52.09 52.73 47.58 48.63 48.21 49.48 53.67 53.80 52.33 52.55
16.61 17.22 17.20 17.11 17.87 17.88 17.92 15.64 16.91 16.50 19.02 20.79 22.02 22.46 23.94 26.11 25.34 26.27 26.99 28.52 30.35 32.33 33.15 35.84 39.99 39.60 40.64 41.80 42.58 42.85 42.78 42.66 43.88 45.84 47.63 45.51 44.20 44.82 46.46 48.54 52.56 52.16 52.95
16.02 16.32 13.91 15.48 17.56 18.24 16.98 15.33 15.16 17.68 18.76 19.64 21.07 21.55 22.42 24.46 25.15 24.95 25.71 27.08 29.05 30.51 31.61 32.78 34.44 34.61 37.10 39.19 40.02 40.87 41.01 41.32 41.19 41.48 41.79 42.02 42.25 42.99 44.03 46.75 47.51 47.78 48.10
15.20 15.98 14.52 14.08 14.55 16.36 17.17 14.84 15.59 16.58 16.40 17.83 18.73 20.51 21.67 22.20 23.29 22.90 23.57 24.59 26.58 27.93 28.35 29.28 29.30 30.42 33.14 34.13 36.00 36.92 37.57 37.94 37.66 38.45 38.96 39.53 40.84 42.06 43.52 44.31 45.01 46.12 48.16
14.50 15.40 14.43 13.74 12.85 14.20 16.32 15.34 16.96 16.57 16.04 16.10 17.46 19.64 19.57 20.61 21.71 22.66 23.46 23.15 24.05 24.71 25.53 26.25 26.73 28.29 30.44 30.31 31.89 32.56 33.17 34.35 35.08 36.10 36.47 37.58 39.42 42.02 43.34 43.68 44.31 45.01 46.32
11.73 12.81 12.48 12.60 11.79 12.98 13.27 14.05 16.38 16.43 15.31 15.55 17.10 17.11 19.27 18.28 19.06 20.58 21.88 23.46 24.44 25.88 24.38 24.91 26.63 26.31 26.18 28.37 31.29 31.10 30.79 31.93 33.16 33.97 33.94 34.23 36.53 38.47 40.37 41.40 42.23 44.62 45.85
5.10 7.88 9.61 10.55 11.11 10.39 10.75 12.50 14.45 15.04 14.26 14.00 16.12 16.54 17.01 16.36 18.54 17.89 19.16 24.59 26.58 27.87 27.59 27.65 27.27 26.82 28.61 30.02 30.61 30.99 31.36 32.21 33.08 31.24 30.58 31.21 32.70 34.89 38.25 37.62 37.55 38.19 38.52
MSLP
1009.59 1009.47 1009.32 1008.91 1009.36 1010.01 1010.48 1011.23 1012.12 1013.08 1013.80 1014.63 1015.30 1016.04 1016.58 1017.29 1017.78 1018.01 1018.53 1018.95 1019.50 1020.08 1020.72 1021.43 1021.97 1022.30 1022.99 1023.68 1024.08 1024.80 1025.39 1025.97 1026.29 1026.85 1027.37 1027.56 1027.54 1027.64 1027.81 1027.90 1027.97 1028.02 1028.17
1011.77 1011.24 1011.03 1010.71 1010.40 1010.31 1010.33 1010.97 1011.55 1012.49 1013.21 1014.01 1014.83 1015.40 1016.18 1017.15 1017.76 1018.15 1018.56 1018.90 1019.44 1020.00 1020.60 1021.27 1021.90 1022.32 1022.97 1023.63 1024.17 1024.76 1025.56 1026.04 1026.17 1026.83 1027.37 1028.01 1028.21 1027.91 1027.91 1027.95 1028.07 1028.13 1028.14
1014.29 1013.59 1013.04 1012.91 1012.12 1011.92 1011.62 1010.93 1011.22 1011.84 1012.90 1013.67 1014.76 1015.55 1016.42 1017.33 1017.96 1018.40 1018.76 1018.89 1019.29 1019.93 1020.44 1021.11 1021.71 1022.29 1022.80 1023.53 1023.97 1024.57 1025.13 1025.98 1026.45 1026.48 1026.71 1027.71 1027.96 1028.21 1028.21 1028.02 1028.16 1028.16 1028.30
1016.31 1015.85 1015.16 1014.75 1014.04 1013.49 1012.98 1012.11 1011.11 1011.54 1012.50 1013.28 1014.17 1014.80 1015.28 1016.08 1016.70 1017.69 1018.46 1018.90 1019.19 1019.76 1020.31 1020.92 1021.50 1022.11 1022.72 1023.36 1023.76 1024.19 1024.82 1025.49 1026.25 1026.66 1026.61 1026.50 1026.82 1027.90 1028.62 1028.32 1028.25 1028.19 1028.30
1018.12 1017.60 1017.19 1016.93 1015.97 1014.75 1014.39 1013.69 1011.81 1011.22 1012.00 1012.79 1013.30 1014.16 1014.92 1015.60 1016.39 1017.40 1018.36 1018.86 1019.15 1019.51 1020.01 1020.59 1021.24 1021.85 1022.40 1022.89 1023.40 1024.02 1024.60 1025.21 1025.96 1026.37 1026.69 1026.78 1026.86 1027.19 1027.83 1028.44 1028.54 1028.43 1028.28
1019.81 1019.33 1019.10 1018.47 1017.27 1016.21 1015.91 1014.68 1013.46 1011.48 1011.54 1012.22 1013.20 1013.98 1014.48 1014.92 1015.82 1016.91 1018.02 1018.73 1019.20 1019.62 1019.93 1020.45 1021.00 1021.56 1022.09 1022.57 1022.93 1023.47 1024.21 1024.85 1025.45 1025.93 1026.29 1026.55 1026.82 1027.24 1027.46 1028.03 1028.58 1028.74 1028.35
1021.70 1021.10 1020.20 1020.01 1018.88 1017.69 1017.63 1016.14 1015.39 1014.28 1012.16 1011.94 1012.54 1013.37 1014.09 1014.38 1014.91 1016.00 1017.06 1018.12 1018.81 1019.39 1019.77 1020.12 1020.84 1021.36 1021.79 1022.23 1022.71 1023.18 1023.82 1024.43 1025.06 1025.55 1026.05 1026.22 1026.40 1026.56 1026.90 1027.30 1028.26 1028.71 1028.47
1023.07 1022.55 1021.94 1021.98 1020.61 1019.94 1019.30 1018.42 1016.18 1013.41 1014.06 1013.66 1012.38 1012.32 1013.20 1014.05 1014.60 1015.29 1016.29 1017.24 1017.92 1018.57 1019.25 1019.74 1020.44 1021.11 1021.58 1021.99 1022.49 1023.10 1023.57 1024.08 1024.66 1025.16 1025.64 1025.91 1026.08 1026.37 1026.59 1026.97 1027.65 1028.65 1028.55
1024.54 1023.82 1023.52 1022.60 1021.74 1021.37 1020.30 1017.90 1017.66 1017.05 1016.20 1015.30 1013.21 1013.15 1012.60 1013.22 1013.99 1014.95 1015.82 1016.65 1017.57 1018.25 1018.90 1019.46 1020.11 1020.71 1021.36 1021.89 1022.45 1022.97 1023.39 1023.88 1024.35 1024.79 1025.24 1025.58 1025.92 1026.15 1026.38 1026.60 1026.98 1027.67 1028.58
1025.18 1024.25 1024.69 1023.79 1023.82 1021.67 1022.48 1020.38 1020.09 1017.88 1018.97 1016.70 1015.26 1014.92 1013.65 1012.60 1013.38 1014.47 1015.11 1016.06 1016.85 1017.61 1018.51 1019.18 1019.73 1020.37 1021.02 1021.51 1022.07 1022.62 1022.93 1023.55 1023.91 1024.38 1024.82 1025.29 1025.69 1025.95 1026.20 1026.53 1026.79 1027.15 1027.90
1026.28 1026.18 1025.40 1025.41 1023.91 1023.31 1022.95 1021.76 1022.14 1019.62 1018.84 1017.92 1017.18 1015.63 1014.44 1013.40 1013.40 1013.72 1014.14 1015.33 1016.43 1016.98 1017.86 1018.59 1019.20 1019.85 1020.61 1021.09 1021.70 1022.19 1022.62 1023.08 1023.55 1024.05 1024.44 1024.87 1025.31 1025.76 1026.10 1026.39 1026.61 1026.97 1027.40
1027.07 1026.73 1026.60 1025.31 1025.54 1024.65 1023.77 1021.96 1022.27 1021.91 1019.50 1018.70 1018.44 1017.75 1016.62 1016.24 1013.82 1013.84 1014.09 1014.89 1016.16 1016.75 1017.34 1018.08 1018.81 1019.28 1019.92 1020.54 1021.14 1021.74 1022.24 1022.68 1023.20 1023.68 1024.17 1024.50 1024.92 1025.42 1025.76 1026.08 1026.40 1026.59 1026.86
1027.96 1027.51 1026.91 1026.89 1026.11 1025.87 1025.28 1023.08 1023.43 1022.45 1021.85 1019.75 1019.51 1018.97 1018.76 1018.23 1016.60 1014.99 1015.00 1015.48 1016.16 1016.42 1017.02 1017.53 1018.41 1018.96 1019.38 1020.03 1020.57 1021.14 1021.70 1022.24 1022.72 1023.19 1023.68 1023.97 1024.25 1024.86 1025.34 1025.71 1026.05 1026.25 1026.50
1029.06 1028.73 1028.42 1027.99 1027.76 1026.81 1025.90 1025.74 1024.57 1023.86 1022.17 1021.19 1021.81 1019.92 1020.04 1019.57 1018.05 1017.25 1017.81 1015.97 1015.85 1016.26 1016.84 1017.46 1018.23 1018.40 1019.14 1019.62 1020.18 1020.72 1021.21 1021.79 1022.32 1022.71 1023.12 1023.48 1023.74 1024.15 1024.62 1025.10 1025.45 1025.79 1026.20
1029.52 1029.15 1028.62 1028.21 1027.98 1027.54 1027.21 1025.87 1025.78 1024.51 1024.06 1022.50 1022.92 1022.73 1020.85 1021.13 1019.90 1019.18 1018.13 1017.56 1016.43 1016.75 1017.29 1017.55 1018.28 1018.87 1019.31 1019.82 1020.17 1020.56 1020.93 1021.42 1022.13 1022.63 1022.91 1023.14 1023.32 1023.68 1023.87 1024.35 1024.78 1025.26 1025.79
1030.33 1029.96 1029.59 1029.60 1029.27 1028.40 1027.31 1026.87 1026.56 1026.25 1025.75 1024.61 1023.98 1022.46 1022.16 1022.59 1021.17 1020.70 1020.41 1017.93 1018.76 1018.09 1017.70 1017.66 1018.23 1019.01 1019.81 1020.05 1020.32 1020.63 1020.79 1021.40 1021.83 1022.34 1022.79 1023.10 1023.27 1023.61 1023.80 1023.95 1024.10 1024.35 1025.06
1031.13 1030.37 1030.23 1030.17 1029.66 1029.12 1028.98 1028.89 1027.70 1027.51 1027.19 1026.50 1025.31 1024.74 1023.10 1023.97 1023.76 1022.53 1022.10 1019.35 1019.76 1019.14 1018.47 1018.62 1018.87 1019.54 1020.41 1020.71 1021.05 1021.15 1021.06 1021.42 1021.78 1022.14 1022.64 1022.90 1023.01 1023.10 1023.25 1023.74 1023.97 1024.20 1024.35
1031.45 1031.20 1031.12 1031.04 1030.51 1029.81 1029.25 1028.49 1028.19 1028.25 1027.57 1026.86 1026.46 1025.77 1024.71 1025.04 1024.87 1023.61 1023.97 1020.30 1021.60 1019.68 1019.81 1020.07 1020.08 1020.23 1020.91 1021.23 1021.33 1021.40 1021.37 1021.61 1021.91 1021.99 1022.31 1022.65 1022.91 1022.94 1023.07 1023.41 1023.80 1023.99 1024.14
1031.95 1031.68 1031.55 1031.28 1030.79 1030.18 1029.84 1029.27 1028.90 1028.43 1028.18 1027.54 1027.77 1026.88 1025.89 1025.55 1026.29 1023.75 1023.41 1022.67 1022.45 1021.84 1020.67 1020.62 1020.85 1020.87 1021.31 1021.48 1021.35 1021.45 1021.69 1021.86 1021.95 1021.95 1022.03 1022.23 1022.70 1022.58 1022.76 1023.24 1023.51 1023.60 1023.61
1031.72 1031.60 1031.49 1031.23 1030.97 1030.63 1030.30 1029.46 1029.37 1029.23 1029.12 1028.78 1028.13 1027.59 1027.07 1026.31 1026.01 1027.07 1024.41 1023.92 1023.56 1023.75 1021.72 1021.47 1020.92 1021.36 1021.71 1021.94 1022.13 1022.00 1022.03 1022.04 1022.03 1022.04 1022.10 1022.65 1022.90 1022.78 1022.65 1022.99 1023.06 1023.29 1023.28
1032.07 1031.99 1031.85 1031.47 1031.10 1030.91 1030.62 1030.32 1030.26 1029.73 1029.28 1028.73 1028.31 1027.98 1027.97 1026.70 1026.26 1025.72 1025.30 1025.00 1024.81 1024.23 1022.59 1022.13 1022.18 1022.36 1022.38 1022.36 1022.57 1022.29 1022.62 1022.81 1022.64 1022.51 1022.62 1023.18 1023.35 1023.26 1023.02 1022.83 1022.96 1023.02 1022.91
1032.53 1032.49 1032.41 1031.88 1031.47 1031.16 1031.00 1031.01 1030.79 1030.52 1029.58 1029.09 1028.79 1028.31 1028.06 1027.41 1026.87 1026.31 1026.02 1025.39 1025.15 1024.51 1023.28 1023.16 1023.48 1023.84 1023.55 1023.54 1023.30 1022.59 1023.22 1023.57 1023.23 1023.28 1023.46 1023.67 1023.61 1023.26 1023.17 1023.01 1023.08 1023.15 1023.29
1032.99 1032.88 1032.63 1032.18 1032.07 1031.56 1031.18 1031.17 1031.02 1030.65 1030.10 1029.91 1029.54 1028.60 1027.67 1027.27 1027.35 1027.46 1027.19 1026.14 1025.61 1025.34 1025.11 1025.04 1024.94 1024.54 1024.51 1024.74 1023.92 1023.70 1024.08 1024.07 1024.11 1024.15 1024.13 1023.89 1023.61 1023.39 1023.16 1023.02 1023.12 1023.25 1023.34
1033.35 1032.90 1032.59 1032.59 1032.40 1032.12 1031.82 1031.69 1031.34 1031.15 1030.73 1030.65 1029.91 1028.55 1028.21 1028.17 1028.54 1027.98 1026.92 1026.81 1026.55 1026.30 1026.22 1025.66 1025.95 1025.43 1025.28 1025.34 1025.11 1024.99 1025.08 1024.51 1024.47 1024.49 1024.21 1024.16 1023.69 1023.50 1023.33 1023.09 1023.03 1023.25 1023.32
1033.55 1033.28 1033.16 1032.93 1032.74 1032.54 1032.25 1031.99 1031.70 1031.39 1030.98 1030.49 1029.89 1029.69 1029.47 1029.43 1029.34 1028.36 1027.50 1027.36 1026.90 1026.35 1026.78 1026.67 1026.62 1026.05 1026.16 1026.14 1025.73 1025.44 1025.17 1024.98 1024.67 1024.73 1024.75 1024.54 1024.02 1023.68 1023.53 1023.36 1023.29 1023.21 1023.31
1033.87 1033.63 1033.37 1033.29 1033.12 1033.09 1032.78 1032.27 1031.90 1031.79 1031.42 1030.98 1030.62 1030.66 1030.49 1030.33 1029.54 1028.61 1028.11 1027.64 1027.20 1026.64 1026.67 1026.48 1026.46 1026.23 1026.13 1026.09 1025.98 1025.56 1025.32 1025.11 1024.85 1024.80 1025.15 1024.93 1024.58 1024.14 1024.03 1024.03 1023.95 1023.89 1023.91
Wind_Speed
3 7 6 7 15 19 18 21 21 19 15 12 12 11 10 8 6 6 9 9 9 9 9 6 7 8 8 7 8 4 6 2 4 4 3 3 4 5 4 3 3 4 5
11 12 11 9 5 12 19 21 21 21 17 13 11 11 11 5 5 4 8 9 10 9 9 9 7 7 7 7 6 6 3 2 3 4 4 3 4 3 2 3 3 4 3
12 12 14 11 9 10 3 20 20 21 18 17 10 8 9 7 5 5 6 8 10 8 10 9 8 7 6 6 6 6 7 5 2 3 4 3 3 2 2 0 2 4 2
14 14 15 13 12 11 11 9 17 20 17 18 16 17 13 15 12 9 5 7 10 10 11 9 9 8 5 6 6 6 5 5 4 1 1 3 4 4 1 2 2 2 3
15 16 16 15 13 13 13 12 8 19 19 18 17 15 14 13 10 9 11 9 9 10 11 11 9 9 6 7 8 7 6 4 4 3 2 2 3 3 3 2 2 2 2
15 16 15 15 14 14 14 14 16 15 19 18 19 17 18 16 14 13 11 9 8 7 9 10 10 8 7 9 9 8 8 6 5 3 3 3 3 2 3 3 1 2 3
15 15 18 17 17 18 15 14 13 11 7 17 20 20 17 16 19 17 13 13 10 9 11 12 10 8 7 8 9 9 8 7 5 6 4 3 3 2 2 4 2 2 2
15 15 16 14 15 16 15 15 15 18 16 9 6 19 18 12 13 15 13 12 11 12 12 11 10 9 8 8 8 5 5 6 5 8 5 4 4 2 2 4 4 1 1
15 15 16 15 15 15 18 19 16 16 16 12 11 7 17 17 16 17 14 11 13 10 13 12 12 11 9 8 8 6 7 6 5 6 6 4 3 2 2 3 3 5 3
16 16 14 15 12 14 13 15 15 14 13 14 12 10 6 16 16 17 16 15 14 15 14 14 13 12 11 11 10 7 8 9 6 5 7 5 3 3 2 3 3 3 4
15 14 14 13 14 13 13 15 14 14 14 16 15 14 14 6 17 17 16 14 13 15 16 15 15 15 14 12 11 9 9 9 7 5 7 7 6 4 4 3 2 4 4
12 12 11 14 14 15 16 16 15 13 14 14 13 13 12 12 7 11 7 13 14 13 15 15 14 12 12 12 13 11 9 10 9 8 8 8 6 6 5 4 5 4 4
14 13 14 15 15 14 13 16 16 14 12 14 16 13 14 13 13 11 7 9 12 12 10 13 12 11 12 14 11 10 10 9 9 8 8 8 8 6 4 5 5 4 3
11 12 10 10 10 11 13 12 14 13 15 14 13 17 15 15 12 12 8 7 8 11 10 9 8 8 8 6 6 7 6 6 5 4 5 7 8 8 8 7 7 5 4
14 14 13 13 13 13 12 13 13 15 13 14 13 14 13 15 14 11 12 7 9 7 7 10 8 6 5 4 6 6 7 8 7 5 3 3 6 9 8 5 6 6 4
13 13 13 13 11 12 14 13 12 13 12 12 13 14 15 13 15 14 11 12 6 8 9 9 9 9 6 10 9 4 4 5 6 6 4 2 4 7 8 10 10 9 7
10 13 13 12 12 12 12 9 10 11 11 10 11 12 14 14 12 12 11 11 13 7 10 9 9 10 7 10 8 5 3 4 5 6 5 3 2 3 5 7 7 7 8
8 9 9 10 10 10 10 10 10 10 11 11 11 11 11 12 12 12 13 13 9 9 8 8 7 7 6 9 7 3 3 3 4 5 6 5 5 5 4 4 5 6 6
2 5 5 7 8 9 10 8 9 10 10 11 10 10 9 9 10 12 13 12 9 8 7 6 6 6 6 9 8 5 2 3 3 3 4 4 5 7 6 5 6 6 5
5 4 6 6 5 8 9 9 9 9 10 10 9 9 8 6 8 8 10 8 9 8 6 6 6 11 9 13 11 6 2 3 1 3 3 9 6 8 3 5 5 5 5
6 5 5 6 6 5 7 7 9 10 10 10 9 7 8 7 8 7 8 7 7 7 7 8 6 9 8 12 15 15 6 4 3 3 4 5 10 9 8 3 2 4 2
5 5 4 5 5 6 6 7 8 9 9 10 9 7 7 7 7 8 8 8 8 7 9 8 7 7 8 14 16 18 15 11 5 6 5 5 12 9 8 3 4 5 4
4 3 3 4 5 6 5 7 7 7 8 9 9 8 8 9 8 7 6 6 7 7 7 6 5 6 5 7 17 17 15 14 7 6 8 11 11 10 5 3 5 5 2
3 2 4 4 4 5 6 5 7 7 6 7 8 8 8 8 7 6 5 5 4 5 5 6 5 4 5 6 6 6 7 10 7 10 8 10 9 9 6 3 1 1 3
3 2 3 3 5 5 5 5 6 6 7 6 6 7 6 6 6 5 5 3 1 4 3 3 3 4 4 5 9 8 6 5 7 9 6 5 4 4 3 3 2 1 2
3 4 4 4 5 4 5 5 4 5 5 5 5 5 3 4 5 5 5 10 10 9 5 5 5 4 6 9 12 11 10 10 10 4 5 5 4 4 2 3 4 4 4
Wind_Direction
52 32 17 202 167 172 162 166 164 165 159 156 153 154 158 152 147 146 144 145 140 139 133 131 137 135 131 136 135 121 127 88 127 108 84 67 87 110 129 141 152 145 159
16 27 25 15 45 179 170 163 171 168 169 165 163 159 153 143 138 127 145 151 144 143 143 140 141 138 132 139 137 131 116 110 143 130 91 87 360 4 112 133 175 171 159
16 18 23 19 32 18 320 171 170 170 169 163 156 155 139 131 136 156 153 157 149 144 149 144 146 143 130 152 148 143 137 152 41 165 142 127 173 134 333 222 169 169 173
22 20 20 12 12 12 353 303 173 171 165 163 163 161 164 165 174 170 152 152 150 148 153 152 152 150 144 151 157 146 148 131 147 88 38 82 134 151 138 347 278 219 199
23 15 14 2 5 15 357 325 258 177 163 175 169 168 172 166 160 154 154 165 163 159 158 162 156 159 160 158 156 148 149 135 145 146 158 70 60 88 135 148 282 326 233
18 19 12 5 7 15 1 354 347 188 170 165 170 178 178 164 155 158 162 170 169 161 158 158 161 161 159 161 165 157 154 156 153 155 156 154 151 179 131 111 147 213 260
19 17 15 1 8 14 356 1 351 335 38 187 175 180 183 177 166 163 169 167 169 173 175 164 164 165 159 161 161 162 161 164 169 166 181 170 178 148 131 116 146 168 258
15 18 21 356 4 7 8 352 5 4 0 19 187 179 179 181 179 172 170 174 176 177 168 170 168 164 158 159 161 158 164 162 169 171 173 181 195 163 147 145 137 81 340
17 17 12 4 8 8 0 360 2 3 360 352 5 331 179 179 179 181 174 171 171 171 174 172 170 168 168 161 163 171 181 173 178 185 174 170 198 197 192 160 148 147 172
18 18 13 14 356 12 351 14 351 12 336 358 14 340 300 177 180 185 179 179 173 168 173 176 176 177 181 179 181 179 188 187 177 174 168 183 186 208 218 206 166 151 153
21 17 10 7 7 16 6 24 356 11 9 358 353 348 5 318 187 179 170 174 170 170 172 176 174 173 180 184 183 185 179 185 176 175 178 193 176 202 211 199 174 171 150
19 17 12 18 19 13 357 15 2 4 24 16 0 7 13 355 52 118 139 171 181 171 174 174 178 178 175 178 180 180 181 185 183 186 184 195 178 197 201 195 208 200 185
17 17 17 14 10 0 2 17 1 4 1 24 8 17 3 346 12 34 87 129 140 136 147 153 159 166 173 177 179 179 179 182 187 183 184 192 177 188 188 199 206 202 195
18 15 17 17 7 10 12 10 3 4 10 22 359 20 4 351 11 2 332 74 103 121 117 112 118 123 119 122 149 160 158 156 159 162 179 189 186 186 191 195 200 198 196
15 13 11 8 10 6 358 16 9 9 4 25 2 7 17 354 1 346 358 22 62 76 117 114 100 90 95 103 119 141 168 166 158 163 179 220 207 201 195 184 196 181 193
7 8 9 4 8 3 4 3 8 11 4 22 13 16 12 355 5 354 360 33 15 59 85 96 100 87 65 63 72 121 144 169 170 169 185 225 255 228 204 200 197 185 180
4 5 5 359 0 3 354 347 18 8 5 11 19 17 21 3 357 352 343 38 360 46 61 66 78 82 83 69 69 73 141 156 161 162 179 202 254 246 223 214 209 208 197
3 1 355 346 359 359 355 355 13 4 9 13 10 11 26 8 358 9 326 31 348 22 48 51 69 82 80 81 61 65 125 143 184 181 183 192 245 249 220 209 206 218 214
51 351 328 330 357 2 349 360 12 14 6 11 0 2 20 14 350 14 348 13 347 356 37 49 44 73 79 69 50 47 96 165 204 205 223 203 240 248 239 204 217 231 236
2 1 348 355 2 2 351 16 17 15 8 2 1 360 352 10 18 330 9 4 356 334 18 17 52 84 75 64 50 57 47 81 77 209 214 40 22 358 243 203 204 206 227
353 15 349 355 360 11 5 18 11 10 353 353 356 20 350 9 15 4 7 357 345 328 16 25 55 63 63 63 63 55 52 31 32 37 53 60 31 32 36 275 227 221 254
2 5 356 346 359 12 14 11 13 354 352 346 345 6 13 24 7 14 0 9 355 355 26 31 45 36 28 51 52 56 53 29 42 42 35 15 356 5 5 12 12 334 325
357 349 353 0 1 359 20 4 359 359 352 347 340 350 13 19 11 20 17 15 11 13 18 22 24 25 15 29 31 37 33 31 27 19 2 354 345 332 321 349 341 336 273
302 340 352 348 342 354 3 346 352 349 351 340 338 4 11 22 359 360 19 27 29 24 6 20 8 12 15 22 12 17 3 13 13 357 349 333 324 297 287 310 344 288 261
287 322 312 305 310 326 330 335 339 341 348 346 355 356 13 354 356 1 7 3 8 50 14 4 349 15 12 356 359 356 350 344 344 337 332 326 330 330 325 312 286 13 341
271 280 272 271 275 282 291 303 318 327 332 335 352 335 359 336 358 360 357 10 10 24 49 39 25 11 356 351 347 340 333 325 321 318 297 296 305 302 1 25 14 18 29